Timestamp, Local Timestamp, ID, PM25, PM10, Co2, Temperature, Relative Humidity, Monitor ID, O3
2021-10-29T21:35:24Z,10/29/21 17:35,6540728,0.091,0.002,578,25.6,53.4,57,0.0
2021-10-29T21:36:43Z,10/29/21 17:36,6540737,0.093,0.0,538,25.4,53.2,57,0.0
2021-10-29T21:37:43Z,10/29/21 17:37,6540746,0.096,0.0,532,25.4,53.1,57,0.0
2021-10-29T21:38:43Z,10/29/21 17:38,6540753,0.11100000000000002,0.0,533,25.3,53.1,57,0.0
2021-10-29T21:39:43Z,10/29/21 17:39,6540762,0.129,0.0,526,25.2,53.1,57,0.0
2021-10-29T21:40:43Z,10/29/21 17:40,6540770,0.066,0.0,533,25.1,53.1,57,0.0
2021-10-29T21:41:42Z,10/29/21 17:41,6540778,0.11100000000000002,0.0,539,25.0,53.1,57,0.0
2021-10-29T21:42:42Z,10/29/21 17:42,6540785,0.11599999999999999,0.001,521,25.0,53.1,57,0.0
2021-10-29T21:43:43Z,10/29/21 17:43,6540793,0.06899999999999999,0.0,543,25.0,53.1,57,0.0
2021-10-29T21:44:42Z,10/29/21 17:44,6540802,0.10800000000000001,0.0,523,24.9,53.1,57,0.0
2021-10-29T21:45:42Z,10/29/21 17:45,6540810,0.075,0.0,519,24.9,53.1,57,0.0
2021-10-29T21:46:43Z,10/29/21 17:46,6540818,0.08399999999999999,0.0,512,24.9,53.1,57,0.0
2021-10-29T21:47:42Z,10/29/21 17:47,6540825,0.162,0.0,525,24.9,53.1,57,0.0
2021-10-29T21:48:42Z,10/29/21 17:48,6540833,0.122,0.001,508,24.9,53.1,57,0.0
2021-10-29T21:49:42Z,10/29/21 17:49,6540842,0.13999999999999999,0.001,488,24.9,53.0,57,0.0
2021-10-29T21:50:42Z,10/29/21 17:50,6540852,0.13799999999999998,0.0,493,24.9,53.1,57,0.0
2021-10-29T21:51:42Z,10/29/21 17:51,6540860,0.11399999999999999,0.0,486,24.9,53.1,57,0.0
2021-10-29T21:52:42Z,10/29/21 17:52,6540870,0.081,0.0,510,24.9,53.1,57,0.0
2021-10-29T21:53:42Z,10/29/21 17:53,6540878,0.254,0.001,505,24.9,53.1,57,0.0
2021-10-29T21:54:42Z,10/29/21 17:54,6540887,0.231,0.0,488,24.9,53.0,57,0.0
2021-10-29T21:55:42Z,10/29/21 17:55,6540896,0.369,0.0,482,24.9,53.0,57,0.0
2021-10-29T21:56:42Z,10/29/21 17:56,6540905,0.365,0.001,511,24.9,52.9,57,0.0
2021-10-29T21:57:42Z,10/29/21 17:57,6540915,0.625,0.002,513,24.9,52.9,57,0.0
2021-10-29T21:58:42Z,10/29/21 17:58,6540924,0.692,0.001,496,24.9,52.9,57,0.0
2021-10-29T21:59:42Z,10/29/21 17:59,6540933,0.9470000000000001,0.001,509,24.9,52.8,57,0.0
2021-10-29T22:00:42Z,10/29/21 18:00,6540942,1.051,0.002,509,24.9,52.8,57,0.0
2021-10-29T22:01:42Z,10/29/21 18:01,6540950,1.139,0.001,498,24.8,52.8,57,0.0
2021-10-29T22:02:42Z,10/29/21 18:02,6540960,1.365,0.0,529,24.8,52.8,57,0.0
2021-10-29T22:03:42Z,10/29/21 18:03,6540969,1.46,0.001,533,24.8,52.8,57,0.0
2021-10-29T22:04:42Z,10/29/21 18:04,6540978,1.656,0.0,549,24.8,52.8,57,0.0
2021-10-29T22:05:42Z,10/29/21 18:05,6540987,1.9600000000000002,0.002,576,24.8,52.8,57,0.0
2021-10-29T22:06:42Z,10/29/21 18:06,6540996,1.988,0.004,567,24.8,52.8,57,0.0
2021-10-29T22:07:42Z,10/29/21 18:07,6541004,2.184,0.0,574,24.9,52.8,57,0.0
2021-10-29T22:08:42Z,10/29/21 18:08,6541014,2.355,0.0,574,24.8,52.7,57,0.0
2021-10-29T22:09:42Z,10/29/21 18:09,6541022,2.3850000000000002,0.0,592,24.8,52.7,57,0.0
2021-10-29T22:10:42Z,10/29/21 18:10,6541031,2.835,0.0,618,24.8,52.7,57,0.0
2021-10-29T22:11:42Z,10/29/21 18:11,6541040,2.676,0.0,602,24.8,52.7,57,0.0
2021-10-29T22:12:42Z,10/29/21 18:12,6541050,2.744,0.001,614,24.8,52.7,57,0.0
2021-10-29T22:13:42Z,10/29/21 18:13,6541059,3.125,0.001,621,24.8,52.7,57,0.0
2021-10-29T22:14:42Z,10/29/21 18:14,6541068,3.123,0.003,628,24.8,52.7,57,0.0
2021-10-29T22:15:42Z,10/29/21 18:15,6541077,3.136,0.002,616,24.8,52.7,57,0.0
2021-10-29T22:16:42Z,10/29/21 18:16,6541085,3.162,0.0,661,24.9,52.7,57,0.0
2021-10-29T22:17:42Z,10/29/21 18:17,6541094,3.6590000000000003,0.001,635,24.8,52.6,57,0.0
2021-10-29T22:18:43Z,10/29/21 18:18,6541104,3.528,0.003,647,24.8,52.6,57,0.0
2021-10-29T22:19:42Z,10/29/21 18:19,6541112,3.6340000000000003,0.002,659,24.8,52.6,57,0.0
2021-10-29T22:20:42Z,10/29/21 18:20,6541122,3.7670000000000003,0.001,649,24.8,52.6,57,0.0
2021-10-29T22:21:43Z,10/29/21 18:21,6541130,3.3619999999999997,0.001,664,24.8,52.6,57,0.0
2021-10-29T22:22:42Z,10/29/21 18:22,6541140,3.7520000000000002,0.001,676,24.8,52.6,57,0.0
2021-10-29T22:23:42Z,10/29/21 18:23,6541149,3.726,0.0,668,24.8,52.6,57,0.0
2021-10-29T22:24:43Z,10/29/21 18:24,6541158,3.832,0.002,686,24.8,52.6,57,0.0
2021-10-29T22:25:42Z,10/29/21 18:25,6541167,4.015,0.002,686,24.8,52.6,57,0.0
2021-10-29T22:26:42Z,10/29/21 18:26,6541176,3.5460000000000003,0.003,688,24.8,52.6,57,0.0
2021-10-29T22:27:43Z,10/29/21 18:27,6541184,4.047,0.0,699,24.8,52.6,57,0.0
2021-10-29T22:28:42Z,10/29/21 18:28,6541194,3.944,0.001,711,24.8,52.6,57,0.0
2021-10-29T22:29:42Z,10/29/21 18:29,6541202,3.896,0.001,714,24.8,52.6,57,0.0
2021-10-29T22:30:43Z,10/29/21 18:30,6541211,3.618,0.0,719,24.9,52.6,57,0.0
2021-10-29T22:31:42Z,10/29/21 18:31,6541220,3.6990000000000003,0.0,706,24.8,52.6,57,0.0
2021-10-29T22:32:42Z,10/29/21 18:32,6541230,3.9229999999999996,0.001,722,24.8,52.6,57,0.0
2021-10-29T22:33:43Z,10/29/21 18:33,6541239,3.8299999999999996,0.001,719,24.9,52.6,57,0.0
2021-10-29T22:34:42Z,10/29/21 18:34,6541247,3.848,0.001,722,24.8,52.6,57,0.0
2021-10-29T22:35:42Z,10/29/21 18:35,6541256,4.008,0.0,737,24.9,52.6,57,0.0
2021-10-29T22:36:43Z,10/29/21 18:36,6541266,3.9229999999999996,0.001,729,24.8,52.6,57,0.0
2021-10-29T22:37:42Z,10/29/21 18:37,6541275,3.782,0.001,724,24.9,52.6,57,0.0
2021-10-29T22:38:42Z,10/29/21 18:38,6541284,3.8240000000000003,0.001,750,24.9,52.6,57,0.0
2021-10-29T22:39:43Z,10/29/21 18:39,6541293,3.8280000000000003,0.0,724,24.9,52.6,57,0.0
2021-10-29T22:40:42Z,10/29/21 18:40,6541302,3.947,0.007000000000000001,722,24.9,52.6,57,0.0
2021-10-29T22:41:42Z,10/29/21 18:41,6541311,3.81,0.0,760,24.9,52.6,57,0.0
2021-10-29T22:42:43Z,10/29/21 18:42,6541320,3.853,0.002,722,24.9,52.6,57,0.0
2021-10-29T22:43:42Z,10/29/21 18:43,6541329,3.8770000000000002,0.002,755,24.9,52.6,57,0.0
2021-10-29T22:44:42Z,10/29/21 18:44,6541338,3.662,0.001,740,24.9,52.6,57,0.0
2021-10-29T22:45:43Z,10/29/21 18:45,6541347,3.474,0.0,760,24.9,52.6,57,0.0
2021-10-29T22:46:42Z,10/29/21 18:46,6541356,3.818,0.001,747,24.9,52.6,57,0.0
2021-10-29T22:47:42Z,10/29/21 18:47,6541364,3.527,0.001,774,24.9,52.6,57,0.0
2021-10-29T22:48:43Z,10/29/21 18:48,6541373,4.007,0.004,779,24.9,52.6,57,0.0
2021-10-29T22:49:42Z,10/29/21 18:49,6541382,3.7700000000000005,0.001,774,24.9,52.6,57,0.0
2021-10-29T22:50:42Z,10/29/21 18:50,6541391,3.914,0.001,766,24.9,52.6,57,0.0
2021-10-29T22:51:43Z,10/29/21 18:51,6541401,3.8579999999999997,0.003,782,24.9,52.6,57,0.0
2021-10-29T22:52:42Z,10/29/21 18:52,6541410,3.9880000000000004,0.002,771,24.9,52.7,57,0.0
2021-10-29T22:53:42Z,10/29/21 18:53,6541418,3.8590000000000004,0.002,790,24.9,52.7,57,0.0
2021-10-29T22:54:43Z,10/29/21 18:54,6541427,3.931,0.005,806,24.9,52.7,57,0.0
2021-10-29T22:55:42Z,10/29/21 18:55,6541436,3.7939999999999996,0.001,809,24.9,52.7,57,0.0
2021-10-29T22:56:42Z,10/29/21 18:56,6541446,3.751,0.002,814,24.9,52.8,57,0.0
2021-10-29T22:57:43Z,10/29/21 18:57,6541455,3.6689999999999996,0.003,809,24.9,52.8,57,0.0
2021-10-29T22:58:42Z,10/29/21 18:58,6541464,3.7009999999999996,0.001,809,24.9,52.8,57,0.0
2021-10-29T22:59:42Z,10/29/21 18:59,6541473,3.629,0.001,801,24.9,52.8,57,0.0
2021-10-29T23:00:43Z,10/29/21 19:00,6541482,3.6310000000000002,0.002,817,24.9,52.8,57,0.0
2021-10-29T23:01:42Z,10/29/21 19:01,6541490,3.5520000000000005,0.003,820,24.9,52.8,57,0.0
2021-10-29T23:02:42Z,10/29/21 19:02,6541500,3.432,0.0,811,24.9,52.8,57,0.0
2021-10-29T23:03:43Z,10/29/21 19:03,6541509,3.436,0.002,814,24.9,52.8,57,0.0
2021-10-29T23:04:42Z,10/29/21 19:04,6541518,3.315,0.0,830,24.9,52.8,57,0.0
2021-10-29T23:05:42Z,10/29/21 19:05,6541526,3.5020000000000002,0.002,809,24.9,52.8,57,0.0
2021-10-29T23:06:43Z,10/29/21 19:06,6541536,3.157,0.002,801,24.9,52.8,57,0.0
2021-10-29T23:07:42Z,10/29/21 19:07,6541545,3.493,0.002,811,24.9,52.8,57,0.0
2021-10-29T23:08:42Z,10/29/21 19:08,6541553,3.183,0.003,793,24.9,52.8,57,0.0
2021-10-29T23:09:42Z,10/29/21 19:09,6541562,3.479,0.001,811,24.9,52.8,57,0.0
2021-10-29T23:10:42Z,10/29/21 19:10,6541572,3.1719999999999997,0.002,803,24.9,52.8,57,0.0
2021-10-29T23:11:42Z,10/29/21 19:11,6541580,3.125,0.001,828,24.9,52.8,57,0.0
2021-10-29T23:12:42Z,10/29/21 19:12,6541589,3.1149999999999998,0.002,811,24.9,52.9,57,0.0
2021-10-29T23:13:42Z,10/29/21 19:13,6541598,3.0300000000000002,0.0,836,24.9,52.9,57,0.0
2021-10-29T23:14:42Z,10/29/21 19:14,6541607,2.887,0.002,811,24.9,52.9,57,0.0
2021-10-29T23:15:42Z,10/29/21 19:15,6541616,3.02,0.004,830,24.9,52.9,57,0.0
2021-10-29T23:16:42Z,10/29/21 19:16,6541626,2.706,0.0,811,24.9,52.9,57,0.0
2021-10-29T23:17:42Z,10/29/21 19:17,6541634,2.893,0.002,825,24.9,52.9,57,0.0
2021-10-29T23:18:42Z,10/29/21 19:18,6541643,2.602,0.002,836,24.9,52.9,57,0.0
2021-10-29T23:19:42Z,10/29/21 19:19,6541652,2.5629999999999997,0.002,828,24.9,52.9,57,0.0
2021-10-29T23:20:42Z,10/29/21 19:20,6541661,2.48,0.001,830,24.9,52.9,57,0.0
2021-10-29T23:21:42Z,10/29/21 19:21,6541671,2.475,0.003,798,24.9,53.0,57,0.0
2021-10-29T23:22:42Z,10/29/21 19:22,6541680,2.241,0.0,814,24.9,53.0,57,0.0
2021-10-29T23:23:42Z,10/29/21 19:23,6541689,2.355,0.003,814,24.9,53.0,57,0.0
2021-10-29T23:24:42Z,10/29/21 19:24,6541697,2.463,0.0,811,24.9,53.0,57,0.0
2021-10-29T23:25:42Z,10/29/21 19:25,6541706,2.075,0.001,833,24.9,53.0,57,0.0
2021-10-29T23:26:42Z,10/29/21 19:26,6541716,2.119,0.002,814,24.9,53.0,57,0.0
2021-10-29T23:27:42Z,10/29/21 19:27,6541725,2.109,0.0,833,24.9,53.0,57,0.0
2021-10-29T23:28:42Z,10/29/21 19:28,6541733,2.081,0.001,814,24.9,53.0,57,0.0
2021-10-29T23:29:42Z,10/29/21 19:29,6541742,2.157,0.0,828,24.9,53.0,57,0.0
2021-10-29T23:30:42Z,10/29/21 19:30,6541752,1.8649999999999998,0.001,809,24.9,53.0,57,0.0
2021-10-29T23:31:42Z,10/29/21 19:31,6541761,1.9280000000000002,0.004,820,24.9,53.0,57,0.0
2021-10-29T23:32:42Z,10/29/21 19:32,6541770,1.739,0.001,830,24.9,53.0,57,0.0
2021-10-29T23:33:42Z,10/29/21 19:33,6541779,1.7899999999999998,0.001,795,24.9,53.0,57,0.0
2021-10-29T23:34:42Z,10/29/21 19:34,6541788,1.8050000000000002,0.001,820,24.9,52.9,57,0.0
2021-10-29T23:35:42Z,10/29/21 19:35,6541796,1.67,0.001,801,24.9,52.9,57,0.0
2021-10-29T23:36:42Z,10/29/21 19:36,6541805,1.778,0.001,795,24.9,52.9,57,0.0
2021-10-29T23:37:42Z,10/29/21 19:37,6541815,1.616,0.001,801,24.9,52.9,57,0.0
2021-10-29T23:38:42Z,10/29/21 19:38,6541824,1.421,0.001,803,24.9,52.9,57,0.0
2021-10-29T23:39:42Z,10/29/21 19:39,6541833,1.584,0.0,822,24.9,52.9,57,0.0
2021-10-29T23:40:42Z,10/29/21 19:40,6541842,1.371,0.0,825,24.9,52.9,57,0.0
2021-10-29T23:41:43Z,10/29/21 19:41,6541850,1.418,0.001,806,24.9,52.9,57,0.0
2021-10-29T23:42:42Z,10/29/21 19:42,6541860,1.53,0.0,801,24.9,52.9,57,0.0
2021-10-29T23:43:42Z,10/29/21 19:43,6541869,1.416,0.0,801,24.9,52.9,57,0.0
2021-10-29T23:44:42Z,10/29/21 19:44,6541877,1.2650000000000001,0.001,801,24.9,52.9,57,0.0
2021-10-29T23:45:42Z,10/29/21 19:45,6541887,1.386,0.0,811,24.9,52.9,57,0.0
2021-10-29T23:46:42Z,10/29/21 19:46,6541896,1.2449999999999999,0.0,825,24.9,52.9,57,0.0
2021-10-29T23:47:42Z,10/29/21 19:47,6541905,1.308,0.0,806,24.9,52.9,57,0.0
2021-10-29T23:48:42Z,10/29/21 19:48,6541914,1.2810000000000001,0.0,825,24.9,52.9,57,0.0
2021-10-29T23:49:42Z,10/29/21 19:49,6541923,1.2,0.0,801,24.9,52.9,57,0.0
2021-10-29T23:50:42Z,10/29/21 19:50,6541931,1.2650000000000001,0.001,811,24.9,52.9,57,0.0
2021-10-29T23:51:42Z,10/29/21 19:51,6541941,0.999,0.0,817,24.9,52.9,57,0.0
2021-10-29T23:52:42Z,10/29/21 19:52,6541949,0.9869999999999999,0.0,822,24.9,52.9,57,0.0
2021-10-29T23:53:42Z,10/29/21 19:53,6541959,1.02,0.003,806,24.9,52.9,57,0.0
2021-10-29T23:54:42Z,10/29/21 19:54,6541968,1.0050000000000001,0.0,801,24.9,52.9,57,0.0
2021-10-29T23:55:42Z,10/29/21 19:55,6541977,1.05,0.0,828,24.9,52.9,57,0.0
2021-10-29T23:56:42Z,10/29/21 19:56,6541986,1.0710000000000002,0.0,828,24.9,52.9,57,0.0
2021-10-29T23:57:42Z,10/29/21 19:57,6541995,0.9630000000000001,0.0,833,24.9,52.9,57,0.0
2021-10-29T23:58:42Z,10/29/21 19:58,6542004,0.966,0.0,822,24.9,52.9,57,0.0
2021-10-29T23:59:42Z,10/29/21 19:59,6542012,1.001,0.001,822,24.9,52.9,57,0.0
2021-10-30T00:00:42Z,10/29/21 20:00,6542021,0.852,0.0,820,24.9,52.9,57,0.0
2021-10-30T00:01:42Z,10/29/21 20:01,6542031,0.89,0.001,830,24.9,52.8,57,0.0
2021-10-30T00:02:42Z,10/29/21 20:02,6542040,0.8550000000000001,0.0,825,24.9,52.8,57,0.0
2021-10-30T00:03:42Z,10/29/21 20:03,6542049,0.897,0.0,811,24.9,52.8,57,0.0
2021-10-30T00:04:42Z,10/29/21 20:04,6542058,0.8880000000000001,0.0,811,24.9,52.8,57,0.0
2021-10-30T00:05:42Z,10/29/21 20:05,6542067,0.788,0.001,830,24.9,52.8,57,0.0
2021-10-30T00:06:42Z,10/29/21 20:06,6542075,0.852,0.0,836,24.9,52.8,57,0.0
2021-10-30T00:07:42Z,10/29/21 20:07,6542084,0.7889999999999999,0.0,798,24.9,52.8,57,0.0
2021-10-30T00:08:42Z,10/29/21 20:08,6542094,0.885,0.0,820,24.9,52.8,57,0.0
2021-10-30T00:09:42Z,10/29/21 20:09,6542102,0.753,0.0,811,24.9,52.8,57,0.0
2021-10-30T00:10:42Z,10/29/21 20:10,6542111,0.741,0.0,820,24.9,52.8,57,0.0
2021-10-30T00:11:42Z,10/29/21 20:11,6542120,0.744,0.0,838,24.9,52.8,57,0.0
2021-10-30T00:12:42Z,10/29/21 20:12,6542129,0.771,0.0,817,24.9,52.8,57,0.0
2021-10-30T00:13:42Z,10/29/21 20:13,6542137,0.735,0.0,822,24.9,52.8,57,0.0
2021-10-30T00:14:42Z,10/29/21 20:14,6542146,0.624,0.0,830,24.9,52.8,57,0.0
2021-10-30T00:15:42Z,10/29/21 20:15,6542155,0.663,0.0,817,24.9,52.8,57,0.0
2021-10-30T00:16:42Z,10/29/21 20:16,6542165,0.546,0.0,817,24.9,52.8,57,0.0
2021-10-30T00:17:42Z,10/29/21 20:17,6542174,0.576,0.0,838,24.9,52.8,57,0.0
2021-10-30T00:18:42Z,10/29/21 20:18,6542182,0.663,0.0,825,24.9,52.8,57,0.0
2021-10-30T00:19:42Z,10/29/21 20:19,6542191,0.621,0.0,809,24.9,52.8,57,0.0
2021-10-30T00:20:42Z,10/29/21 20:20,6542201,0.686,0.001,809,24.9,52.8,57,0.0
2021-10-30T00:21:42Z,10/29/21 20:21,6542210,0.675,0.0,820,24.9,52.7,57,0.0
2021-10-30T00:22:42Z,10/29/21 20:22,6542219,0.489,0.0,822,24.9,52.7,57,0.0
2021-10-30T00:23:42Z,10/29/21 20:23,6542228,0.645,0.0,817,24.9,52.7,57,0.0
2021-10-30T00:24:42Z,10/29/21 20:24,6542237,0.48200000000000004,0.001,811,24.9,52.7,57,0.0
2021-10-30T00:25:42Z,10/29/21 20:25,6542245,0.5389999999999999,0.001,836,24.9,52.7,57,0.0
2021-10-30T00:26:42Z,10/29/21 20:26,6542255,0.663,0.0,841,24.9,52.7,57,0.0
2021-10-30T00:27:42Z,10/29/21 20:27,6542264,0.48600000000000004,0.0,803,24.9,52.7,57,0.0
2021-10-30T00:28:42Z,10/29/21 20:28,6542272,0.6599999999999999,0.0,814,24.9,52.7,57,0.0
2021-10-30T00:29:42Z,10/29/21 20:29,6542281,0.44400000000000006,0.0,820,24.9,52.7,57,0.0
2021-10-30T00:30:42Z,10/29/21 20:30,6542290,0.591,0.0,822,24.9,52.7,57,0.0
2021-10-30T00:31:42Z,10/29/21 20:31,6542299,0.43099999999999994,0.001,809,24.9,52.7,57,0.0
2021-10-30T00:32:42Z,10/29/21 20:32,6542309,0.462,0.0,793,24.9,52.7,57,0.0
2021-10-30T00:33:42Z,10/29/21 20:33,6542317,0.471,0.0,822,24.9,52.7,57,0.0
2021-10-30T00:34:42Z,10/29/21 20:34,6542326,0.42400000000000004,0.002,817,24.9,52.7,57,0.0
2021-10-30T00:35:42Z,10/29/21 20:35,6542336,0.453,0.0,833,24.9,52.7,57,0.0
2021-10-30T00:36:42Z,10/29/21 20:36,6542345,0.438,0.0,814,24.9,52.6,57,0.0
2021-10-30T00:37:42Z,10/29/21 20:37,6542353,0.461,0.001,798,24.9,52.6,57,0.0
2021-10-30T00:38:42Z,10/29/21 20:38,6542362,0.45899999999999996,0.0,833,24.9,52.6,57,0.0
2021-10-30T00:39:42Z,10/29/21 20:39,6542372,0.357,0.0,798,24.9,52.6,57,0.0
2021-10-30T00:40:42Z,10/29/21 20:40,6542381,0.372,0.0,811,24.9,52.6,57,0.0
2021-10-30T00:41:42Z,10/29/21 20:41,6542390,0.45899999999999996,0.0,820,24.9,52.6,57,0.0
2021-10-30T00:42:42Z,10/29/21 20:42,6542399,0.348,0.0,814,24.9,52.6,57,0.0
2021-10-30T00:43:42Z,10/29/21 20:43,6542408,0.369,0.0,811,24.9,52.6,57,0.0
2021-10-30T00:44:42Z,10/29/21 20:44,6542417,0.434,0.001,782,24.9,52.6,57,0.0
2021-10-30T00:45:42Z,10/29/21 20:45,6542425,0.365,0.001,836,24.9,52.6,57,0.0
2021-10-30T00:46:42Z,10/29/21 20:46,6542434,0.329,0.001,806,24.9,52.6,57,0.0
2021-10-30T00:47:42Z,10/29/21 20:47,6542444,0.426,0.0,801,24.9,52.6,57,0.0
2021-10-30T00:48:42Z,10/29/21 20:48,6542453,0.327,0.0,798,24.9,52.6,57,0.0
2021-10-30T00:49:42Z,10/29/21 20:49,6542462,0.315,0.0,811,24.9,52.6,57,0.0
2021-10-30T00:50:42Z,10/29/21 20:50,6542470,0.32,0.001,790,24.9,52.6,57,0.0
2021-10-30T00:51:42Z,10/29/21 20:51,6542480,0.387,0.0,820,24.9,52.6,57,0.0
2021-10-30T00:52:42Z,10/29/21 20:52,6542488,0.255,0.0,779,24.9,52.5,57,0.0
2021-10-30T00:53:42Z,10/29/21 20:53,6542498,0.29700000000000004,0.0,811,24.9,52.5,57,0.0
2021-10-30T00:54:42Z,10/29/21 20:54,6542507,0.363,0.0,787,24.9,52.5,57,0.0
2021-10-30T00:55:42Z,10/29/21 20:55,6542516,0.272,0.001,795,24.9,52.5,57,0.0
2021-10-30T00:56:42Z,10/29/21 20:56,6542525,0.303,0.0,795,24.9,52.5,57,0.0
2021-10-30T00:57:42Z,10/29/21 20:57,6542534,0.339,0.0,817,24.9,52.5,57,0.0
2021-10-30T00:58:42Z,10/29/21 20:58,6542543,0.321,0.0,806,24.9,52.5,57,0.0
2021-10-30T00:59:42Z,10/29/21 20:59,6542551,0.315,0.0,817,24.9,52.5,57,0.0
2021-10-30T01:00:42Z,10/29/21 21:00,6542560,0.324,0.0,809,24.9,52.5,57,0.0
2021-10-30T01:01:42Z,10/29/21 21:01,6542570,0.327,0.0,820,24.9,52.5,57,0.0
2021-10-30T01:02:42Z,10/29/21 21:02,6542578,0.318,0.0,801,24.9,52.5,57,0.0
2021-10-30T01:03:42Z,10/29/21 21:03,6542587,0.29700000000000004,0.0,809,24.9,52.5,57,0.0
2021-10-30T01:04:42Z,10/29/21 21:04,6542597,0.231,0.0,806,24.9,52.5,57,0.0
2021-10-30T01:05:42Z,10/29/21 21:05,6542606,0.288,0.0,790,24.9,52.5,57,0.0
2021-10-30T01:06:42Z,10/29/21 21:06,6542615,0.264,0.0,811,24.9,52.4,57,0.0
2021-10-30T01:07:42Z,10/29/21 21:07,6542624,0.24,0.0,809,24.9,52.4,57,0.0
2021-10-30T01:08:42Z,10/29/21 21:08,6542633,0.246,0.0,820,24.9,52.4,57,0.0
2021-10-30T01:09:42Z,10/29/21 21:09,6542642,0.264,0.0,811,24.9,52.4,57,0.0
2021-10-30T01:10:42Z,10/29/21 21:10,6542651,0.279,0.0,806,24.9,52.4,57,0.0
2021-10-30T01:11:42Z,10/29/21 21:11,6542660,0.288,0.0,806,24.9,52.4,57,0.0
2021-10-30T01:12:42Z,10/29/21 21:12,6542669,0.20099999999999998,0.0,811,24.9,52.4,57,0.0
2021-10-30T01:13:42Z,10/29/21 21:13,6542678,0.22799999999999998,0.0,814,24.9,52.4,57,0.0
2021-10-30T01:14:42Z,10/29/21 21:14,6542686,0.225,0.0,814,24.9,52.5,57,0.0
2021-10-30T01:15:42Z,10/29/21 21:15,6542696,0.213,0.0,820,24.9,52.5,57,0.0
2021-10-30T01:16:42Z,10/29/21 21:16,6542704,0.279,0.0,815,25.0,52.5,57,0.0
2021-10-30T01:17:42Z,10/29/21 21:17,6542714,0.189,0.0,815,25.0,52.5,57,0.0
2021-10-30T01:18:42Z,10/29/21 21:18,6542723,0.26,0.001,834,25.0,52.5,57,0.0
2021-10-30T01:19:42Z,10/29/21 21:19,6542731,0.225,0.0,845,25.0,52.5,57,0.0
2021-10-30T01:20:42Z,10/29/21 21:20,6542741,0.183,0.0,829,25.0,52.5,57,0.0
2021-10-30T01:21:42Z,10/29/21 21:21,6542750,0.195,0.0,826,25.0,52.5,57,0.0
2021-10-30T01:22:42Z,10/29/21 21:22,6542758,0.22200000000000003,0.0,823,25.0,52.5,57,0.0
2021-10-30T01:23:42Z,10/29/21 21:23,6542767,0.21000000000000002,0.0,807,25.0,52.5,57,0.0
2021-10-30T01:24:42Z,10/29/21 21:24,6542777,0.20400000000000001,0.0,865,25.0,52.5,57,0.0
2021-10-30T01:25:42Z,10/29/21 21:25,6542785,0.22999999999999998,0.001,842,25.0,52.4,57,0.0
2021-10-30T01:26:42Z,10/29/21 21:26,6542794,0.186,0.0,845,25.0,52.4,57,0.0
2021-10-30T01:27:42Z,10/29/21 21:27,6542804,0.162,0.0,821,25.0,52.4,57,0.0
2021-10-30T01:28:42Z,10/29/21 21:28,6542813,0.20099999999999998,0.0,848,25.0,52.4,57,0.0
2021-10-30T01:29:42Z,10/29/21 21:29,6542821,0.159,0.0,845,25.0,52.4,57,0.0
2021-10-30T01:30:42Z,10/29/21 21:30,6542831,0.17099999999999999,0.0,851,25.0,52.4,57,0.0
2021-10-30T01:31:42Z,10/29/21 21:31,6542839,0.23399999999999999,0.0,853,25.0,52.4,57,0.0
2021-10-30T01:32:42Z,10/29/21 21:32,6542849,0.174,0.0,851,25.0,52.4,57,0.0
2021-10-30T01:33:42Z,10/29/21 21:33,6542858,0.147,0.0,829,25.0,52.4,57,0.0
2021-10-30T01:34:42Z,10/29/21 21:34,6542867,0.20099999999999998,0.0,842,25.0,52.4,57,0.0
2021-10-30T01:35:42Z,10/29/21 21:35,6542876,0.20400000000000001,0.0,865,25.0,52.4,57,0.0
2021-10-30T01:36:42Z,10/29/21 21:36,6542885,0.18,0.0,839,25.0,52.4,57,0.0
2021-10-30T01:37:42Z,10/29/21 21:37,6542893,0.17099999999999999,0.0,815,25.0,52.4,57,0.0
2021-10-30T01:38:42Z,10/29/21 21:38,6542903,0.23700000000000002,0.0,826,25.0,52.4,57,0.0
2021-10-30T01:39:42Z,10/29/21 21:39,6542912,0.174,0.0,839,25.0,52.3,57,0.0
2021-10-30T01:40:42Z,10/29/21 21:40,6542920,0.189,0.0,834,25.0,52.3,57,0.0
2021-10-30T01:41:42Z,10/29/21 21:41,6542929,0.149,0.001,839,25.0,52.3,57,0.0
2021-10-30T01:42:42Z,10/29/21 21:42,6542938,0.174,0.0,837,25.0,52.3,57,0.0
2021-10-30T01:43:42Z,10/29/21 21:43,6542948,0.144,0.0,848,25.0,52.2,57,0.0
2021-10-30T01:44:42Z,10/29/21 21:44,6542957,0.186,0.0,818,25.0,52.2,57,0.0
2021-10-30T01:45:42Z,10/29/21 21:45,6542966,0.192,0.0,831,24.9,52.2,57,0.0
2021-10-30T01:46:42Z,10/29/21 21:46,6542975,0.146,0.001,839,24.9,52.1,57,0.0
2021-10-30T01:47:42Z,10/29/21 21:47,6542984,0.149,0.001,844,24.9,52.0,57,0.0
2021-10-30T01:48:42Z,10/29/21 21:48,6542993,0.219,0.0,850,24.9,52.0,57,0.0
2021-10-30T01:49:42Z,10/29/21 21:49,6543001,0.147,0.0,838,24.9,52.0,57,0.0
2021-10-30T01:50:42Z,10/29/21 21:50,6543011,0.132,0.0,814,24.9,52.0,57,0.0
2021-10-30T01:51:42Z,10/29/21 21:51,6543020,0.147,0.0,814,24.9,52.0,57,0.0
2021-10-30T01:52:42Z,10/29/21 21:52,6543029,0.22799999999999998,0.0,852,24.9,51.9,57,0.0
2021-10-30T01:53:42Z,10/29/21 21:53,6543038,0.123,0.0,836,24.9,51.9,57,0.0
2021-10-30T01:54:42Z,10/29/21 21:54,6543047,0.174,0.0,833,24.9,51.9,57,0.0
2021-10-30T01:55:42Z,10/29/21 21:55,6543056,0.174,0.0,820,24.9,51.9,57,0.0
2021-10-30T01:56:42Z,10/29/21 21:56,6543065,0.16799999999999998,0.0,850,24.9,51.9,57,0.0
2021-10-30T01:57:42Z,10/29/21 21:57,6543074,0.15,0.0,850,24.8,51.9,57,0.0
2021-10-30T01:58:42Z,10/29/21 21:58,6543083,0.186,0.0,838,24.8,51.9,57,0.0
2021-10-30T01:59:42Z,10/29/21 21:59,6543092,0.213,0.0,830,24.8,51.9,57,0.0
2021-10-30T02:00:42Z,10/29/21 22:00,6543101,0.253,0.002,822,24.8,51.9,57,0.0
2021-10-30T02:01:42Z,10/29/21 22:01,6543110,0.308,0.001,827,24.8,51.8,57,0.0
2021-10-30T02:02:42Z,10/29/21 22:02,6543119,0.22599999999999998,0.002,819,24.8,51.8,57,0.0
2021-10-30T02:03:42Z,10/29/21 22:03,6543128,0.225,0.0,829,24.8,51.8,57,0.0
2021-10-30T02:04:42Z,10/29/21 22:04,6543137,0.314,0.001,813,24.8,51.8,57,0.0
2021-10-30T02:05:42Z,10/29/21 22:05,6543146,0.258,0.003,816,24.8,51.7,57,0.0
2021-10-30T02:06:42Z,10/29/21 22:06,6543155,0.267,0.003,810,24.8,51.7,57,0.0
2021-10-30T02:07:42Z,10/29/21 22:07,6543164,0.267,0.0,808,24.8,51.7,57,0.0
2021-10-30T02:08:42Z,10/29/21 22:08,6543173,0.174,0.0,794,24.7,51.7,57,0.0
2021-10-30T02:09:42Z,10/29/21 22:09,6543181,0.32,0.001,808,24.7,51.7,57,0.0
2021-10-30T02:10:42Z,10/29/21 22:10,6543191,0.264,0.0,813,24.7,51.9,57,0.0
